Time,TemperatureF,DewpointF,PressureIn,WindDirection,WindDirectionDegrees,WindSpeedMPH,WindSpeedGustMPH,Humidity,HourlyPrecipIn,Conditions,Clouds,dailyrainin,SoftwareType,DateUTC
2013-05-04 00:01:00,52.6,36.9,29.34,NNW,339,0.0,0.0,55,0.00,,FEW,0.00,WeatherDisplay:10.37,2013-05-04 05:01:00,
2013-05-04 00:06:00,52.3,36.6,29.34,NNW,339,0.0,0.0,55,0.00,,FEW,0.00,WeatherDisplay:10.37,2013-05-04 05:06:00,
2013-05-04 00:11:00,52.3,37.1,29.34,NNW,339,0.0,0.0,56,0.00,,FEW,0.00,WeatherDisplay:10.37,2013-05-04 05:11:00,
2013-05-04 00:16:00,52.1,37.8,29.34,NNW,339,0.0,0.0,58,0.00,,FEW,0.00,WeatherDisplay:10.37,2013-05-04 05:16:00,
2013-05-04 00:21:00,52.1,37.8,29.34,NNW,339,0.0,0.0,58,0.00,,FEW,0.00,WeatherDisplay:10.37,2013-05-04 05:21:00,
2013-05-04 00:26:00,52.4,38.9,29.33,NE,42,0.0,2.3,60,0.00,,FEW,0.00,WeatherDisplay:10.37,2013-05-04 05:26:00,
2013-05-04 00:31:00,53.1,39.6,29.33,NE,43,0.1,2.3,60,0.00,,FEW,0.00,WeatherDisplay:10.37,2013-05-04 05:31:00,
2013-05-04 00:36:00,53.5,39.9,29.33,NE,43,0.0,0.0,60,0.00,,FEW,0.00,WeatherDisplay:10.37,2013-05-04 05:36:00,
2013-05-04 00:41:00,53.7,40.1,29.33,NE,43,0.0,0.0,60,0.00,,FEW,0.00,WeatherDisplay:10.37,2013-05-04 05:41:00,
2013-05-04 00:46:00,53.9,40.8,29.33,NE,43,0.0,0.0,61,0.00,,FEW,0.00,WeatherDisplay:10.37,2013-05-04 05:46:00,
2013-05-04 00:51:00,54.0,41.7,29.33,NE,43,0.0,0.0,63,0.00,,FEW,0.00,WeatherDisplay:10.37,2013-05-04 05:51:00,
2013-05-04 00:56:00,54.2,42.3,29.33,NE,43,0.0,2.3,64,0.00,,FEW,0.00,WeatherDisplay:10.37,2013-05-04 05:56:00,
2013-05-04 01:01:00,54.3,42.4,29.33,NE,43,0.0,0.0,64,0.00,,FEW,0.00,WeatherDisplay:10.37,2013-05-04 06:01:00,
2013-05-04 01:06:00,54.4,42.9,29.33,NE,43,0.0,0.0,65,0.00,,FEW,0.00,WeatherDisplay:10.37,2013-05-04 06:06:00,
2013-05-04 01:11:00,54.2,43.1,29.33,NE,43,0.0,0.0,66,0.00,,FEW,0.00,WeatherDisplay:10.37,2013-05-04 06:11:00,
2013-05-04 01:16:00,54.1,43.0,29.33,NE,43,0.0,0.0,66,0.00,,FEW,0.00,WeatherDisplay:10.37,2013-05-04 06:16:00,
2013-05-04 01:21:00,54.1,43.4,29.32,NE,43,0.0,0.0,67,0.00,,FEW,0.00,WeatherDisplay:10.37,2013-05-04 06:21:00,
2013-05-04 01:26:00,54.1,43.4,29.32,NE,47,0.0,0.0,67,0.00,,FEW,0.00,WeatherDisplay:10.37,2013-05-04 06:26:00,
2013-05-04 01:31:00,54.2,43.5,29.32,NE,47,0.0,0.0,67,0.00,,FEW,0.00,WeatherDisplay:10.37,2013-05-04 06:31:00,
2013-05-04 01:36:00,54.0,43.3,29.32,NE,47,0.0,0.0,67,0.00,,FEW,0.00,WeatherDisplay:10.37,2013-05-04 06:36:00,
2013-05-04 01:41:00,53.8,43.5,29.32,NE,47,0.0,0.0,68,0.00,,FEW,0.00,WeatherDisplay:10.37,2013-05-04 06:41:00,
2013-05-04 01:46:00,53.7,43.8,29.32,NE,47,0.0,0.0,69,0.00,,FEW,0.00,WeatherDisplay:10.37,2013-05-04 06:46:00,
2013-05-04 01:51:00,53.9,44.0,29.32,NE,47,0.0,0.0,69,0.00,,FEW,0.00,WeatherDisplay:10.37,2013-05-04 06:51:00,
2013-05-04 01:56:00,54.4,44.4,29.32,NE,47,0.0,0.0,69,0.00,,FEW,0.00,WeatherDisplay:10.37,2013-05-04 06:56:00,
2013-05-04 02:01:00,54.8,44.4,29.31,NE,47,0.0,0.0,68,0.00,,FEW,0.00,WeatherDisplay:10.37,2013-05-04 07:01:00,
2013-05-04 02:06:00,54.9,44.1,29.31,NE,47,0.0,0.0,67,0.00,,FEW,0.00,WeatherDisplay:10.37,2013-05-04 07:06:00,
2013-05-04 02:11:00,55.0,44.2,29.31,NE,47,0.0,0.0,67,0.00,,FEW,0.00,WeatherDisplay:10.37,2013-05-04 07:11:00,
2013-05-04 02:16:00,55.2,44.4,29.31,NE,47,0.0,0.0,67,0.00,,FEW,0.00,WeatherDisplay:10.37,2013-05-04 07:16:00,
2013-05-04 02:21:00,55.2,44.4,29.31,NE,47,0.0,0.0,67,0.00,,FEW,0.00,WeatherDisplay:10.37,2013-05-04 07:21:00,
2013-05-04 02:26:00,55.2,44.4,29.30,NE,47,0.0,0.0,67,0.00,,FEW,0.00,WeatherDisplay:10.37,2013-05-04 07:26:00,
2013-05-04 02:31:00,55.1,43.9,29.30,NE,47,0.0,0.0,66,0.00,,FEW,0.00,WeatherDisplay:10.37,2013-05-04 07:31:00,
2013-05-04 02:36:00,54.8,44.0,29.30,NE,47,0.0,0.0,67,0.00,,FEW,0.00,WeatherDisplay:10.37,2013-05-04 07:36:00,
2013-05-04 02:41:00,54.7,44.0,29.30,NE,47,0.0,0.0,67,0.00,,FEW,0.00,WeatherDisplay:10.37,2013-05-04 07:41:00,
2013-05-04 02:46:00,54.5,43.4,29.30,NE,47,0.0,0.0,66,0.00,,FEW,0.00,WeatherDisplay:10.37,2013-05-04 07:46:00,
2013-05-04 02:51:00,54.3,43.2,29.30,NE,47,0.0,0.0,66,0.00,,FEW,0.00,WeatherDisplay:10.37,2013-05-04 07:51:00,
2013-05-04 02:56:00,54.1,43.4,29.29,NE,47,0.0,0.0,67,0.00,,FEW,0.00,WeatherDisplay:10.37,2013-05-04 07:56:00,
2013-05-04 03:01:00,53.9,43.2,29.30,NE,47,0.0,0.0,67,0.00,,FEW,0.00,WeatherDisplay:10.37,2013-05-04 08:01:00,
2013-05-04 03:06:00,53.8,43.9,29.29,NE,47,0.0,0.0,69,0.00,,FEW,0.00,WeatherDisplay:10.37,2013-05-04 08:06:00,
2013-05-04 03:11:00,53.9,44.0,29.29,NE,47,0.0,0.0,69,0.00,,FEW,0.00,WeatherDisplay:10.37,2013-05-04 08:11:00,
2013-05-04 03:16:00,53.9,44.7,29.29,NE,47,0.0,0.0,71,0.00,,FEW,0.00,WeatherDisplay:10.37,2013-05-04 08:16:00,
2013-05-04 03:21:00,53.9,44.7,29.29,NE,47,0.0,0.0,71,0.00,,FEW,0.00,WeatherDisplay:10.37,2013-05-04 08:21:00,
2013-05-04 03:26:00,53.8,45.0,29.29,NE,47,0.0,0.0,72,0.00,,FEW,0.00,WeatherDisplay:10.37,2013-05-04 08:26:00,
2013-05-04 03:31:00,53.7,45.2,29.28,NE,47,0.0,0.0,73,0.00,,FEW,0.00,WeatherDisplay:10.37,2013-05-04 08:31:00,
2013-05-04 03:36:00,54.1,46.3,29.28,NE,47,0.0,0.0,75,0.00,,FEW,0.00,WeatherDisplay:10.37,2013-05-04 08:36:00,
2013-05-04 03:41:00,54.1,46.3,29.28,NE,47,0.0,0.0,75,0.00,,FEW,0.00,WeatherDisplay:10.37,2013-05-04 08:41:00,
2013-05-04 03:46:00,53.9,46.2,29.28,NE,47,0.0,0.0,75,0.00,,FEW,0.00,WeatherDisplay:10.37,2013-05-04 08:46:00,
2013-05-04 03:51:00,53.7,46.7,29.28,NE,47,0.0,0.0,77,0.00,,FEW,0.00,WeatherDisplay:10.37,2013-05-04 08:51:00,
2013-05-04 03:56:00,53.8,47.1,29.28,SSE,160,0.0,0.0,78,0.00,,FEW,0.00,WeatherDisplay:10.37,2013-05-04 08:56:00,
2013-05-04 04:01:00,54.0,47.6,29.28,SSE,160,0.0,0.0,79,0.00,,FEW,0.00,WeatherDisplay:10.37,2013-05-04 09:01:00,
2013-05-04 04:06:00,54.2,47.8,29.28,SSE,160,0.0,0.0,79,0.00,,FEW,0.00,WeatherDisplay:10.37,2013-05-04 09:06:00,
2013-05-04 04:11:00,54.3,47.9,29.28,South,169,0.0,0.0,79,0.00,,FEW,0.00,WeatherDisplay:10.37,2013-05-04 09:11:00,
2013-05-04 04:16:00,54.4,47.7,29.27,South,169,0.0,0.0,78,0.00,,FEW,0.00,WeatherDisplay:10.37,2013-05-04 09:16:00,
2013-05-04 04:21:00,54.4,47.7,29.27,South,169,0.0,0.0,78,0.00,,FEW,0.00,WeatherDisplay:10.37,2013-05-04 09:21:00,
2013-05-04 04:26:00,54.5,47.8,29.27,South,170,0.0,0.0,78,0.00,,FEW,0.00,WeatherDisplay:10.37,2013-05-04 09:26:00,
2013-05-04 04:31:00,54.6,47.9,29.27,South,169,0.0,0.0,78,0.00,,FEW,0.00,WeatherDisplay:10.37,2013-05-04 09:31:00,
2013-05-04 04:36:00,54.7,48.0,29.27,South,169,0.0,0.0,78,0.00,,FEW,0.00,WeatherDisplay:10.37,2013-05-04 09:36:00,
2013-05-04 04:41:00,54.8,47.7,29.27,South,169,0.0,0.0,77,0.00,,FEW,0.00,WeatherDisplay:10.37,2013-05-04 09:41:00,
2013-05-04 04:46:00,54.8,47.7,29.27,South,180,0.0,0.0,77,0.00,,FEW,0.00,WeatherDisplay:10.37,2013-05-04 09:46:00,
2013-05-04 04:51:00,54.9,47.8,29.27,South,180,0.0,0.0,77,0.00,,FEW,0.00,WeatherDisplay:10.37,2013-05-04 09:51:00,
2013-05-04 04:56:00,55.1,48.0,29.27,South,169,0.0,0.0,77,0.00,,FEW,0.00,WeatherDisplay:10.37,2013-05-04 09:56:00,
2013-05-04 05:01:00,55.2,48.1,29.27,South,178,0.0,0.0,77,0.00,,FEW,0.00,WeatherDisplay:10.37,2013-05-04 10:01:00,
2013-05-04 05:06:00,55.3,48.2,29.27,SSE,164,0.0,0.0,77,0.00,,FEW,0.00,WeatherDisplay:10.37,2013-05-04 10:06:00,
2013-05-04 05:11:00,55.2,47.8,29.27,South,169,0.0,0.0,76,0.00,,FEW,0.00,WeatherDisplay:10.37,2013-05-04 10:11:00,
2013-05-04 05:16:00,55.2,47.8,29.27,South,176,0.0,0.0,76,0.00,,FEW,0.00,WeatherDisplay:10.37,2013-05-04 10:16:00,
2013-05-04 05:21:00,55.2,47.8,29.27,South,178,0.0,0.0,76,0.00,,FEW,0.00,WeatherDisplay:10.37,2013-05-04 10:21:00,
2013-05-04 05:26:00,55.1,47.7,29.27,South,177,0.0,0.0,76,0.00,,FEW,0.00,WeatherDisplay:10.37,2013-05-04 10:26:00,
2013-05-04 05:31:00,55.1,47.7,29.27,SE,146,0.0,1.1,76,0.00,,FEW,0.00,WeatherDisplay:10.37,2013-05-04 10:31:00,
2013-05-04 05:36:00,55.1,47.3,29.27,SE,145,0.0,0.0,75,0.00,,FEW,0.00,WeatherDisplay:10.37,2013-05-04 10:36:00,
2013-05-04 05:41:00,55.2,47.8,29.27,SSE,154,0.0,1.1,76,0.00,,FEW,0.00,WeatherDisplay:10.37,2013-05-04 10:41:00,
2013-05-04 05:46:00,55.2,47.8,29.27,SSE,154,0.0,0.0,76,0.00,,FEW,0.00,WeatherDisplay:10.37,2013-05-04 10:46:00,
2013-05-04 05:51:00,55.3,47.5,29.27,SSE,156,0.0,0.0,75,0.00,,FEW,0.00,WeatherDisplay:10.37,2013-05-04 10:51:00,
2013-05-04 05:56:00,55.3,47.5,29.27,SSE,156,0.0,1.1,75,0.00,,FEW,0.00,WeatherDisplay:10.37,2013-05-04 10:56:00,
2013-05-04 06:01:00,55.3,47.5,29.27,SSE,155,0.0,0.0,75,0.00,,FEW,0.00,WeatherDisplay:10.37,2013-05-04 11:01:00,
2013-05-04 06:06:00,55.3,47.9,29.27,SSE,165,0.0,0.0,76,0.00,,FEW,0.00,WeatherDisplay:10.37,2013-05-04 11:06:00,
2013-05-04 06:11:00,55.2,47.8,29.27,South,169,0.0,0.0,76,0.00,,FEW,0.00,WeatherDisplay:10.37,2013-05-04 11:11:00,
2013-05-04 06:16:00,55.2,48.1,29.27,SSE,166,0.0,0.0,77,0.00,,FEW,0.00,WeatherDisplay:10.37,2013-05-04 11:16:00,
2013-05-04 06:21:00,55.2,47.8,29.27,South,172,0.0,0.0,76,0.00,,FEW,0.00,WeatherDisplay:10.37,2013-05-04 11:21:00,
2013-05-04 06:26:00,55.3,47.9,29.27,South,172,0.0,0.0,76,0.00,,FEW,0.00,WeatherDisplay:10.37,2013-05-04 11:26:00,
2013-05-04 06:31:00,55.4,48.0,29.27,South,172,0.0,0.0,76,0.00,,FEW,0.00,WeatherDisplay:10.37,2013-05-04 11:31:00,
2013-05-04 06:36:00,55.4,48.0,29.27,South,172,0.0,0.0,76,0.00,,FEW,0.00,WeatherDisplay:10.37,2013-05-04 11:36:00,
2013-05-04 06:41:00,55.1,47.7,29.27,South,173,0.0,0.0,76,0.00,,FEW,0.00,WeatherDisplay:10.37,2013-05-04 11:41:00,
2013-05-04 06:47:00,55.2,48.1,29.27,SSW,199,0.0,0.0,77,0.00,,FEW,0.00,WeatherDisplay:10.37,2013-05-04 11:47:00,
2013-05-04 06:52:00,55.4,48.0,29.27,SW,217,0.0,0.0,76,0.00,,FEW,0.00,WeatherDisplay:10.37,2013-05-04 11:52:00,
2013-05-04 06:57:00,55.4,47.6,29.27,SW,217,0.0,0.0,75,0.00,,FEW,0.00,WeatherDisplay:10.37,2013-05-04 11:57:00,
2013-05-04 07:02:00,55.2,47.1,29.27,SW,217,0.0,0.0,74,0.00,,FEW,0.00,WeatherDisplay:10.37,2013-05-04 12:02:00,
2013-05-04 07:07:00,55.0,46.9,29.27,SW,217,0.0,0.0,74,0.00,,FEW,0.00,WeatherDisplay:10.37,2013-05-04 12:07:00,
2013-05-04 07:13:00,55.3,46.8,29.27,SW,217,0.0,0.0,73,0.00,,FEW,0.00,WeatherDisplay:10.37,2013-05-04 12:13:00,
2013-05-04 07:18:00,55.6,47.1,29.27,SW,220,0.0,0.0,73,0.00,,FEW,0.00,WeatherDisplay:10.37,2013-05-04 12:18:00,
2013-05-04 07:23:00,56.1,47.2,29.28,SW,235,0.0,0.0,72,0.00,,FEW,0.00,WeatherDisplay:10.37,2013-05-04 12:23:00,
2013-05-04 07:28:00,56.8,47.1,29.28,SW,224,0.3,1.1,70,0.00,,FEW,0.00,WeatherDisplay:10.37,2013-05-04 12:28:00,
2013-05-04 07:33:00,57.4,47.7,29.28,SW,215,0.0,0.0,70,0.00,,FEW,0.00,WeatherDisplay:10.37,2013-05-04 12:33:00,
2013-05-04 07:38:00,57.7,47.6,29.28,SW,221,0.0,0.0,69,0.00,,FEW,0.00,WeatherDisplay:10.37,2013-05-04 12:38:00,
2013-05-04 07:43:00,57.7,47.6,29.28,WSW,244,0.1,0.0,69,0.00,,FEW,0.00,WeatherDisplay:10.37,2013-05-04 12:43:00,
2013-05-04 07:48:00,58.0,47.9,29.28,SW,235,0.1,1.1,69,0.00,,FEW,0.00,WeatherDisplay:10.37,2013-05-04 12:48:00,
2013-05-04 07:53:00,58.7,48.6,29.28,South,189,1.3,2.1,69,0.00,,FEW,0.00,WeatherDisplay:10.37,2013-05-04 12:53:00,
2013-05-04 07:58:00,59.7,48.3,29.28,SW,228,0.7,3.5,66,0.00,,FEW,0.00,WeatherDisplay:10.37,2013-05-04 12:58:00,
2013-05-04 08:03:00,61.0,48.7,29.28,South,186,1.6,2.3,64,0.00,,FEW,0.00,WeatherDisplay:10.37,2013-05-04 13:03:00,
2013-05-04 08:04:00,61.0,48.7,29.28,South,187,1.5,2.3,64,0.00,,FEW,0.00,WeatherDisplay:10.37,2013-05-04 13:04:00,
2013-05-04 08:09:00,62.1,49.4,29.28,South,187,1.3,3.5,63,0.00,,FEW,0.00,WeatherDisplay:10.37,2013-05-04 13:09:00,
2013-05-04 08:14:00,63.1,49.4,29.28,SW,225,1.2,2.3,61,0.00,,FEW,0.00,WeatherDisplay:10.37,2013-05-04 13:14:00,
2013-05-04 08:19:00,64.1,49.9,29.28,SW,214,2.1,3.5,60,0.00,,FEW,0.00,WeatherDisplay:10.37,2013-05-04 13:19:00,
2013-05-04 08:24:00,64.5,49.8,29.28,SSE,147,0.4,2.3,59,0.00,,FEW,0.00,WeatherDisplay:10.37,2013-05-04 13:24:00,
2013-05-04 08:29:00,65.0,49.9,29.28,SW,223,2.4,3.5,58,0.00,,FEW,0.00,WeatherDisplay:10.37,2013-05-04 13:29:00,
2013-05-04 08:34:00,65.7,50.0,29.28,SW,224,2.8,5.8,57,0.00,,FEW,0.00,WeatherDisplay:10.37,2013-05-04 13:34:00,
2013-05-04 08:39:00,66.6,50.4,29.28,SW,217,0.6,4.6,56,0.00,,FEW,0.00,WeatherDisplay:10.37,2013-05-04 13:39:00,
2013-05-04 08:44:00,67.2,51.4,29.28,West,272,0.8,2.3,57,0.00,,FEW,0.00,WeatherDisplay:10.37,2013-05-04 13:44:00,
2013-05-04 08:49:00,67.7,52.4,29.28,WSW,246,3.3,5.8,58,0.00,,FEW,0.00,WeatherDisplay:10.37,2013-05-04 13:49:00,
2013-05-04 08:54:00,67.6,52.8,29.28,NW,307,6.6,9.2,59,0.00,,FEW,0.00,WeatherDisplay:10.37,2013-05-04 13:54:00,
2013-05-04 08:59:00,67.0,51.3,29.29,WSW,238,6.1,9.2,57,0.00,,FEW,0.00,WeatherDisplay:10.37,2013-05-04 13:59:00,
2013-05-04 09:04:00,66.8,52.0,29.29,WSW,253,4.4,9.4,59,0.00,,FEW,0.00,WeatherDisplay:10.37,2013-05-04 14:04:00,
2013-05-04 09:09:00,66.7,52.4,29.29,WSW,238,4.3,8.1,60,0.00,,FEW,0.00,WeatherDisplay:10.37,2013-05-04 14:09:00,
2013-05-04 09:14:00,66.5,51.7,29.29,WSW,255,5.3,5.3,59,0.00,,FEW,0.00,WeatherDisplay:10.37,2013-05-04 14:14:00,
2013-05-04 09:19:00,66.6,50.9,29.29,West,264,3.8,8.4,57,0.00,,FEW,0.00,WeatherDisplay:10.37,2013-05-04 14:19:00,
2013-05-04 09:24:00,66.7,50.5,29.29,SW,224,6.4,9.2,56,0.00,,FEW,0.00,WeatherDisplay:10.37,2013-05-04 14:24:00,
2013-05-04 09:29:00,66.9,50.2,29.29,West,260,5.6,8.1,55,0.00,,FEW,0.00,WeatherDisplay:10.37,2013-05-04 14:29:00,
2013-05-04 09:34:00,67.0,49.8,29.30,NW,307,8.9,8.9,54,0.00,,FEW,0.00,WeatherDisplay:10.37,2013-05-04 14:34:00,
2013-05-04 09:39:00,67.2,50.0,29.30,WSW,246,3.4,5.8,54,0.00,,FEW,0.00,WeatherDisplay:10.37,2013-05-04 14:39:00,
2013-05-04 09:44:00,67.5,50.3,29.29,SW,232,3.0,5.8,54,0.00,,FEW,0.00,WeatherDisplay:10.37,2013-05-04 14:44:00,
2013-05-04 09:49:00,67.8,50.0,29.30,SSW,210,4.3,5.8,53,0.00,,FEW,0.00,WeatherDisplay:10.37,2013-05-04 14:49:00,
2013-05-04 09:54:00,68.2,49.9,29.30,WSW,244,2.5,8.1,52,0.00,,FEW,0.00,WeatherDisplay:10.37,2013-05-04 14:54:00,
2013-05-04 09:59:00,68.3,49.5,29.30,SW,230,5.8,8.1,51,0.00,,FEW,0.00,WeatherDisplay:10.37,2013-05-04 14:59:00,
2013-05-04 10:04:00,68.9,49.5,29.30,South,187,4.2,5.8,50,0.00,,FEW,0.00,WeatherDisplay:10.37,2013-05-04 15:04:00,
2013-05-04 10:09:00,69.0,48.5,29.30,SSW,213,7.1,9.4,48,0.00,,FEW,0.00,WeatherDisplay:10.37,2013-05-04 15:09:00,
2013-05-04 10:14:00,69.1,48.6,29.30,WSW,244,4.5,8.1,48,0.00,,FEW,0.00,WeatherDisplay:10.37,2013-05-04 15:14:00,
2013-05-04 10:19:00,69.3,48.8,29.30,NW,310,2.4,9.2,48,0.00,,FEW,0.00,WeatherDisplay:10.37,2013-05-04 15:19:00,
2013-05-04 10:24:00,69.6,48.5,29.30,West,265,5.4,10.5,47,0.00,,FEW,0.00,WeatherDisplay:10.37,2013-05-04 15:24:00,
2013-05-04 10:29:00,69.9,47.6,29.30,SSW,211,3.9,5.8,45,0.00,,FEW,0.00,WeatherDisplay:10.37,2013-05-04 15:29:00,
2013-05-04 10:34:00,70.4,48.6,29.30,WSW,248,4.9,4.9,46,0.00,,FEW,0.00,WeatherDisplay:10.37,2013-05-04 15:34:00,
2013-05-04 10:39:00,71.1,47.5,29.30,SW,222,5.7,5.8,43,0.00,,FEW,0.00,WeatherDisplay:10.37,2013-05-04 15:39:00,
2013-05-04 10:44:00,71.2,46.9,29.30,WSW,244,5.9,9.2,42,0.00,,FEW,0.00,WeatherDisplay:10.37,2013-05-04 15:44:00,
2013-05-04 10:49:00,71.4,47.1,29.30,SW,219,7.2,11.5,42,0.00,,FEW,0.00,WeatherDisplay:10.37,2013-05-04 15:49:00,
2013-05-04 10:54:00,71.3,46.4,29.29,SW,227,2.8,5.8,41,0.00,,FEW,0.00,WeatherDisplay:10.37,2013-05-04 15:54:00,
2013-05-04 10:59:00,72.0,47.0,29.29,WSW,239,4.9,5.8,41,0.00,,FEW,0.00,WeatherDisplay:10.37,2013-05-04 15:59:00,
2013-05-04 11:04:00,72.6,45.5,29.29,WSW,246,5.8,9.2,38,0.00,,FEW,0.00,WeatherDisplay:10.37,2013-05-04 16:04:00,
2013-05-04 11:09:00,72.7,46.3,29.29,SW,227,6.4,8.1,39,0.00,,FEW,0.00,WeatherDisplay:10.37,2013-05-04 16:09:00,
2013-05-04 11:14:00,72.5,44.7,29.29,SW,223,6.4,9.4,37,0.00,,FEW,0.00,WeatherDisplay:10.37,2013-05-04 16:14:00,
2013-05-04 11:19:00,72.5,46.1,29.28,SW,224,3.7,6.9,39,0.00,,FEW,0.00,WeatherDisplay:10.37,2013-05-04 16:19:00,
2013-05-04 11:24:00,73.0,46.6,29.28,SW,228,2.0,5.8,39,0.00,,FEW,0.00,WeatherDisplay:10.37,2013-05-04 16:24:00,
2013-05-04 11:29:00,73.3,46.8,29.28,ESE,116,4.4,5.8,39,0.00,,FEW,0.00,WeatherDisplay:10.37,2013-05-04 16:29:00,
2013-05-04 11:34:00,73.3,47.5,29.28,SE,146,6.3,11.5,40,0.00,,FEW,0.00,WeatherDisplay:10.37,2013-05-04 16:34:00,
2013-05-04 11:39:00,73.9,48.7,29.28,South,172,1.0,4.6,41,0.00,,FEW,0.00,WeatherDisplay:10.37,2013-05-04 16:39:00,
2013-05-04 11:44:00,74.3,49.1,29.28,South,170,3.3,7.4,41,0.00,,FEW,0.00,WeatherDisplay:10.37,2013-05-04 16:44:00,
2013-05-04 11:49:00,74.2,48.3,29.28,SSW,197,3.3,5.8,40,0.00,,FEW,0.00,WeatherDisplay:10.37,2013-05-04 16:49:00,
2013-05-04 11:54:00,74.2,47.6,29.27,SE,144,7.1,8.1,39,0.00,,FEW,0.00,WeatherDisplay:10.37,2013-05-04 16:54:00,
2013-05-04 11:59:00,74.3,47.7,29.28,South,185,6.2,10.4,39,0.00,,FEW,0.00,WeatherDisplay:10.37,2013-05-04 16:59:00,
2013-05-04 12:04:00,73.8,47.3,29.27,South,177,7.3,8.1,39,0.00,,FEW,0.00,WeatherDisplay:10.37,2013-05-04 17:04:00,
2013-05-04 12:09:00,73.9,45.3,29.27,ESE,119,3.6,5.8,36,0.00,,FEW,0.00,WeatherDisplay:10.37,2013-05-04 17:09:00,
2013-05-04 12:14:00,74.0,47.5,29.26,SSE,148,7.0,11.6,39,0.00,,FEW,0.00,WeatherDisplay:10.37,2013-05-04 17:14:00,
2013-05-04 12:19:00,74.3,47.7,29.26,SSE,148,5.1,5.1,39,0.00,,FEW,0.00,WeatherDisplay:10.37,2013-05-04 17:19:00,
2013-05-04 12:24:00,74.2,46.2,29.26,SW,227,9.0,10.5,37,0.00,,FEW,0.00,WeatherDisplay:10.37,2013-05-04 17:24:00,
2013-05-04 12:29:00,74.6,46.6,29.26,SSE,152,4.8,9.2,37,0.00,,FEW,0.00,WeatherDisplay:10.37,2013-05-04 17:29:00,
2013-05-04 12:34:00,74.4,46.4,29.25,SSE,164,6.2,9.2,37,0.00,,FEW,0.00,WeatherDisplay:10.37,2013-05-04 17:34:00,
2013-05-04 12:39:00,75.1,47.0,29.25,SE,141,5.5,9.4,37,0.00,,FEW,0.00,WeatherDisplay:10.37,2013-05-04 17:39:00,
2013-05-04 12:44:00,74.6,45.9,29.25,ESE,114,7.0,12.7,36,0.00,,FEW,0.00,WeatherDisplay:10.37,2013-05-04 17:44:00,
2013-05-04 12:49:00,74.2,47.0,29.25,SSW,206,7.3,10.4,38,0.00,,FEW,0.00,WeatherDisplay:10.37,2013-05-04 17:49:00,
2013-05-04 12:54:00,74.4,47.1,29.25,South,185,7.3,10.4,38,0.00,,FEW,0.00,WeatherDisplay:10.37,2013-05-04 17:54:00,
2013-05-04 12:59:00,74.6,48.0,29.24,SSE,163,3.1,8.1,39,0.00,,FEW,0.00,WeatherDisplay:10.37,2013-05-04 17:59:00,
2013-05-04 13:04:00,74.7,48.1,29.24,SE,139,5.5,8.1,39,0.00,,FEW,0.00,WeatherDisplay:10.37,2013-05-04 18:04:00,
2013-05-04 13:09:00,74.4,47.8,29.24,SSE,150,5.4,7.4,39,0.00,,FEW,0.00,WeatherDisplay:10.37,2013-05-04 18:09:00,
2013-05-04 13:14:00,74.9,48.9,29.24,South,175,4.3,8.1,40,0.00,,FEW,0.00,WeatherDisplay:10.37,2013-05-04 18:14:00,
2013-05-04 13:19:00,75.3,49.3,29.23,ESE,103,5.3,8.1,40,0.00,,FEW,0.00,WeatherDisplay:10.37,2013-05-04 18:19:00,
2013-05-04 13:24:00,75.0,47.7,29.24,SE,135,5.3,8.1,38,0.00,,FEW,0.00,WeatherDisplay:10.37,2013-05-04 18:24:00,
2013-05-04 13:29:00,74.8,49.5,29.23,SSE,147,7.3,8.1,41,0.00,,FEW,0.00,WeatherDisplay:10.37,2013-05-04 18:29:00,
2013-05-04 13:34:00,75.5,48.8,29.23,South,178,4.7,5.8,39,0.00,,FEW,0.00,WeatherDisplay:10.37,2013-05-04 18:34:00,
2013-05-04 13:39:00,75.7,49.7,29.23,SSW,203,8.3,10.4,40,0.00,,FEW,0.00,WeatherDisplay:10.37,2013-05-04 18:39:00,
2013-05-04 13:44:00,75.6,49.6,29.23,SSW,204,7.0,11.5,40,0.00,,FEW,0.00,WeatherDisplay:10.37,2013-05-04 18:44:00,
2013-05-04 13:49:00,75.5,50.8,29.23,SSE,158,7.4,12.7,42,0.00,,FEW,0.00,WeatherDisplay:10.37,2013-05-04 18:49:00,
2013-05-04 13:54:00,75.1,50.4,29.23,South,175,5.4,10.4,42,0.00,,FEW,0.00,WeatherDisplay:10.37,2013-05-04 18:54:00,
2013-05-04 13:59:00,75.2,51.2,29.23,SSE,154,6.8,11.6,43,0.00,,FEW,0.00,WeatherDisplay:10.37,2013-05-04 18:59:00,
2013-05-04 14:04:00,74.6,50.0,29.23,SSE,162,8.2,11.5,42,0.00,,FEW,0.00,WeatherDisplay:10.37,2013-05-04 19:04:00,
2013-05-04 14:09:00,74.6,50.6,29.23,SW,225,5.8,8.1,43,0.00,,FEW,0.00,WeatherDisplay:10.37,2013-05-04 19:09:00,
2013-05-04 14:14:00,75.5,50.1,29.22,ESE,111,7.1,8.1,41,0.00,,FEW,0.00,WeatherDisplay:10.37,2013-05-04 19:14:00,
2013-05-04 14:19:00,75.7,50.3,29.22,East,99,8.5,15.0,41,0.00,,FEW,0.00,WeatherDisplay:10.37,2013-05-04 19:19:00,
2013-05-04 14:24:00,75.4,50.7,29.22,WSW,248,3.9,5.8,42,0.00,,FEW,0.00,WeatherDisplay:10.37,2013-05-04 19:24:00,
2013-05-04 14:29:00,75.8,50.4,29.22,SSE,156,4.9,8.1,41,0.00,,FEW,0.00,WeatherDisplay:10.37,2013-05-04 19:29:00,
2013-05-04 14:34:00,75.3,50.6,29.22,SSW,201,5.5,6.9,42,0.00,,FEW,0.00,WeatherDisplay:10.37,2013-05-04 19:34:00,
2013-05-04 14:39:00,75.6,50.9,29.22,ESE,120,7.2,10.5,42,0.00,,FEW,0.00,WeatherDisplay:10.37,2013-05-04 19:39:00,
2013-05-04 14:44:00,75.5,50.8,29.21,SE,144,4.2,6.9,42,0.00,,FEW,0.00,WeatherDisplay:10.37,2013-05-04 19:44:00,
2013-05-04 14:49:00,75.8,51.1,29.21,SW,214,5.0,10.5,42,0.00,,FEW,0.00,WeatherDisplay:10.37,2013-05-04 19:49:00,
2013-05-04 14:54:00,75.8,51.7,29.21,East,88,3.7,9.2,43,0.00,,FEW,0.00,WeatherDisplay:10.37,2013-05-04 19:54:00,
2013-05-04 14:59:00,75.9,51.8,29.21,SE,140,8.6,8.6,43,0.00,,FEW,0.00,WeatherDisplay:10.37,2013-05-04 19:59:00,
2013-05-04 15:04:00,75.7,52.2,29.20,ESE,114,5.0,8.1,44,0.00,,FEW,0.00,WeatherDisplay:10.37,2013-05-04 20:04:00,
2013-05-04 15:09:00,75.9,51.8,29.20,East,101,5.0,5.8,43,0.00,,FEW,0.00,WeatherDisplay:10.37,2013-05-04 20:09:00,
2013-05-04 15:14:00,75.8,51.1,29.20,SE,140,7.2,11.5,42,0.00,,FEW,0.00,WeatherDisplay:10.37,2013-05-04 20:14:00,
2013-05-04 15:19:00,75.2,52.4,29.20,SSE,147,2.7,5.8,45,0.00,,FEW,0.00,WeatherDisplay:10.37,2013-05-04 20:19:00,
2013-05-04 15:24:00,75.5,51.4,29.20,SSE,159,7.7,9.2,43,0.00,,FEW,0.00,WeatherDisplay:10.37,2013-05-04 20:24:00,
2013-05-04 15:29:00,75.6,51.5,29.20,SSE,151,6.2,9.2,43,0.00,,FEW,0.00,WeatherDisplay:10.37,2013-05-04 20:29:00,
2013-05-04 15:34:00,75.8,52.3,29.19,SSE,150,10.2,10.2,44,0.00,,FEW,0.00,WeatherDisplay:10.37,2013-05-04 20:34:00,
2013-05-04 15:39:00,75.1,50.4,29.19,SSE,163,6.1,8.1,42,0.00,,FEW,0.00,WeatherDisplay:10.37,2013-05-04 20:39:00,
2013-05-04 15:44:00,74.7,50.1,29.19,ESE,114,10.2,11.5,42,0.00,,FEW,0.00,WeatherDisplay:10.37,2013-05-04 20:44:00,
2013-05-04 15:49:00,74.6,50.6,29.18,SSE,161,8.1,12.7,43,0.00,,FEW,0.00,WeatherDisplay:10.37,2013-05-04 20:49:00,
2013-05-04 15:54:00,74.6,51.2,29.18,SE,129,7.7,10.4,44,0.00,,FEW,0.00,WeatherDisplay:10.37,2013-05-04 20:54:00,
2013-05-04 15:59:00,74.9,50.3,29.18,SE,140,5.0,10.5,42,0.00,,FEW,0.00,WeatherDisplay:10.37,2013-05-04 20:59:00,
2013-05-04 16:04:00,75.0,51.6,29.18,SE,129,6.1,8.1,44,0.00,,FEW,0.00,WeatherDisplay:10.37,2013-05-04 21:04:00,
2013-05-04 16:09:00,74.8,50.2,29.18,South,172,7.1,12.7,42,0.00,,FEW,0.00,WeatherDisplay:10.37,2013-05-04 21:09:00,
2013-05-04 16:14:00,74.6,51.2,29.18,SE,127,9.2,12.7,44,0.00,,FEW,0.00,WeatherDisplay:10.37,2013-05-04 21:14:00,
2013-05-04 16:19:00,74.5,51.8,29.17,SE,124,8.4,13.8,45,0.00,,FEW,0.00,WeatherDisplay:10.37,2013-05-04 21:19:00,
2013-05-04 16:24:00,74.0,52.5,29.17,SE,141,10.8,15.0,47,0.00,,FEW,0.00,WeatherDisplay:10.37,2013-05-04 21:24:00,
2013-05-04 16:29:00,73.8,52.9,29.17,South,173,8.2,9.2,48,0.00,,FEW,0.00,WeatherDisplay:10.37,2013-05-04 21:29:00,
2013-05-04 16:34:00,73.7,52.8,29.17,ESE,118,8.9,11.5,48,0.00,,FEW,0.00,WeatherDisplay:10.37,2013-05-04 21:34:00,
2013-05-04 16:39:00,73.5,52.0,29.17,SSE,154,7.4,11.5,47,0.00,,FEW,0.00,WeatherDisplay:10.37,2013-05-04 21:39:00,
2013-05-04 16:44:00,73.3,51.8,29.17,South,174,10.1,12.6,47,0.00,,FEW,0.00,WeatherDisplay:10.37,2013-05-04 21:44:00,
2013-05-04 16:49:00,72.8,52.5,29.16,SSE,153,6.9,6.9,49,0.00,,FEW,0.00,WeatherDisplay:10.37,2013-05-04 21:49:00,
2013-05-04 16:54:00,72.3,51.5,29.16,SE,146,8.1,11.5,48,0.00,,FEW,0.00,WeatherDisplay:10.37,2013-05-04 21:54:00,
2013-05-04 16:59:00,72.2,50.8,29.16,ESE,102,7.9,10.4,47,0.00,,FEW,0.00,WeatherDisplay:10.37,2013-05-04 21:59:00,
2013-05-04 17:04:00,72.3,52.6,29.16,SE,130,5.9,11.5,50,0.00,,FEW,0.00,WeatherDisplay:10.37,2013-05-04 22:04:00,
2013-05-04 17:09:00,72.4,52.7,29.16,South,175,7.3,10.4,50,0.00,,FEW,0.00,WeatherDisplay:10.37,2013-05-04 22:09:00,
2013-05-04 17:14:00,72.7,51.9,29.16,SE,138,6.2,13.7,48,0.00,,FEW,0.00,WeatherDisplay:10.37,2013-05-04 22:14:00,
2013-05-04 17:19:00,72.5,51.1,29.16,SE,142,8.8,11.5,47,0.00,,FEW,0.00,WeatherDisplay:10.37,2013-05-04 22:19:00,
2013-05-04 17:24:00,72.0,51.8,29.16,SE,130,4.7,11.5,49,0.00,,FEW,0.00,WeatherDisplay:10.37,2013-05-04 22:24:00,
2013-05-04 17:29:00,72.0,51.8,29.16,SE,142,5.7,7.4,49,0.00,,FEW,0.00,WeatherDisplay:10.37,2013-05-04 22:29:00,
2013-05-04 17:34:00,72.0,50.1,29.16,South,170,8.1,11.5,46,0.00,,FEW,0.00,WeatherDisplay:10.37,2013-05-04 22:34:00,
2013-05-04 17:39:00,72.0,50.1,29.16,SSE,155,6.0,11.6,46,0.00,,FEW,0.00,WeatherDisplay:10.37,2013-05-04 22:39:00,
2013-05-04 17:44:00,72.1,49.6,29.15,SSE,163,4.5,9.4,45,0.00,,FEW,0.00,WeatherDisplay:10.37,2013-05-04 22:44:00,
2013-05-04 17:49:00,71.8,51.0,29.15,ESE,102,6.6,11.5,48,0.00,,FEW,0.00,WeatherDisplay:10.37,2013-05-04 22:49:00,
2013-05-04 17:54:00,71.4,51.2,29.15,SSE,159,4.0,5.8,49,0.00,,FEW,0.00,WeatherDisplay:10.37,2013-05-04 22:54:00,
2013-05-04 17:59:00,71.2,51.1,29.15,SE,133,8.6,9.2,49,0.00,,FEW,0.00,WeatherDisplay:10.37,2013-05-04 22:59:00,
2013-05-04 18:04:00,71.2,50.5,29.15,East,101,4.3,8.1,48,0.00,,FEW,0.00,WeatherDisplay:10.37,2013-05-04 23:04:00,
2013-05-04 18:09:00,71.1,51.0,29.15,ESE,121,3.1,6.9,49,0.00,,FEW,0.00,WeatherDisplay:10.37,2013-05-04 23:09:00,
2013-05-04 18:14:00,71.0,50.3,29.15,SSE,147,7.4,9.2,48,0.00,,FEW,0.00,WeatherDisplay:10.37,2013-05-04 23:14:00,
2013-05-04 18:19:00,70.8,49.0,29.15,SE,140,3.0,5.8,46,0.00,,FEW,0.00,WeatherDisplay:10.37,2013-05-04 23:19:00,
2013-05-04 18:24:00,70.7,50.0,29.15,SSE,166,8.1,11.5,48,0.00,,FEW,0.00,WeatherDisplay:10.37,2013-05-04 23:24:00,
2013-05-04 18:29:00,70.6,50.5,29.15,SE,135,6.0,11.5,49,0.00,,FEW,0.00,WeatherDisplay:10.37,2013-05-04 23:29:00,
2013-05-04 18:34:00,70.4,50.9,29.16,SE,135,7.5,9.2,50,0.00,,FEW,0.00,WeatherDisplay:10.37,2013-05-04 23:34:00,
2013-05-04 18:39:00,70.2,52.3,29.16,SE,145,7.8,12.7,53,0.00,,FEW,0.00,WeatherDisplay:10.37,2013-05-04 23:39:00,
2013-05-04 18:44:00,70.0,52.6,29.15,SSE,166,7.4,11.5,54,0.00,,FEW,0.00,WeatherDisplay:10.37,2013-05-04 23:44:00,
2013-05-04 18:49:00,70.0,53.1,29.16,SSE,150,4.1,5.8,55,0.00,,FEW,0.00,WeatherDisplay:10.37,2013-05-04 23:49:00,
2013-05-04 18:54:00,70.0,51.0,29.16,South,191,7.5,7.5,51,0.00,,FEW,0.00,WeatherDisplay:10.37,2013-05-04 23:54:00,
2013-05-04 18:59:00,70.1,51.1,29.16,SE,136,6.7,10.4,51,0.00,,FEW,0.00,WeatherDisplay:10.37,2013-05-04 23:59:00,
2013-05-04 19:04:00,70.1,51.7,29.15,South,169,5.7,8.1,52,0.00,,FEW,0.00,WeatherDisplay:10.37,2013-05-05 00:04:00,
2013-05-04 19:09:00,69.9,50.9,29.15,East,99,4.4,5.8,51,0.00,,FEW,0.00,WeatherDisplay:10.37,2013-05-05 00:09:00,
2013-05-04 19:14:00,69.8,50.3,29.15,South,181,7.0,10.4,50,0.00,,FEW,0.00,WeatherDisplay:10.37,2013-05-05 00:14:00,
2013-05-04 19:19:00,69.6,50.7,29.16,SSW,202,7.0,12.7,51,0.00,,FEW,0.00,WeatherDisplay:10.37,2013-05-05 00:19:00,
2013-05-04 19:24:00,69.4,49.9,29.16,South,178,5.3,8.4,50,0.00,,FEW,0.00,WeatherDisplay:10.37,2013-05-05 00:24:00,
2013-05-04 19:29:00,69.4,49.9,29.16,SSE,162,4.2,6.9,50,0.00,,FEW,0.00,WeatherDisplay:10.37,2013-05-05 00:29:00,
2013-05-04 19:34:00,69.4,49.9,29.16,SSE,160,7.5,9.2,50,0.00,,FEW,0.00,WeatherDisplay:10.37,2013-05-05 00:34:00,
2013-05-04 19:39:00,69.4,48.9,29.16,SE,141,7.3,9.2,48,0.00,,FEW,0.00,WeatherDisplay:10.37,2013-05-05 00:39:00,
2013-05-04 19:44:00,69.2,47.5,29.16,SSE,163,6.8,16.1,46,0.00,,FEW,0.00,WeatherDisplay:10.37,2013-05-05 00:44:00,
2013-05-04 19:49:00,69.1,49.1,29.16,ESE,108,7.0,8.1,49,0.00,,FEW,0.00,WeatherDisplay:10.37,2013-05-05 00:49:00,
2013-05-04 19:54:00,68.9,50.0,29.16,South,173,7.0,12.7,51,0.00,,FEW,0.00,WeatherDisplay:10.37,2013-05-05 00:54:00,
2013-05-04 19:59:00,68.8,50.5,29.17,SE,137,5.8,8.1,52,0.00,,FEW,0.00,WeatherDisplay:10.37,2013-05-05 00:59:00,
2013-05-04 20:04:00,68.7,50.9,29.16,SE,135,6.2,10.4,53,0.00,,FEW,0.00,WeatherDisplay:10.37,2013-05-05 01:04:00,
2013-05-04 20:09:00,68.6,50.8,29.17,SSW,196,6.0,10.4,53,0.00,,FEW,0.00,WeatherDisplay:10.37,2013-05-05 01:09:00,
2013-05-04 20:14:00,68.5,51.2,29.17,SSE,152,4.7,11.5,54,0.00,,FEW,0.00,WeatherDisplay:10.37,2013-05-05 01:14:00,
2013-05-04 20:19:00,68.4,52.1,29.17,East,95,7.4,10.4,56,0.00,,FEW,0.00,WeatherDisplay:10.37,2013-05-05 01:19:00,
2013-05-04 20:24:00,68.3,52.9,29.17,SE,135,6.6,9.2,58,0.00,,FEW,0.00,WeatherDisplay:10.37,2013-05-05 01:24:00,
2013-05-04 20:29:00,68.2,53.3,29.18,SSE,157,3.6,5.8,59,0.00,,FEW,0.00,WeatherDisplay:10.37,2013-05-05 01:29:00,
2013-05-04 20:34:00,68.1,53.7,29.18,SSW,206,5.9,6.9,60,0.00,,FEW,0.00,WeatherDisplay:10.37,2013-05-05 01:34:00,
2013-05-04 20:39:00,68.1,53.7,29.18,South,189,4.4,10.5,60,0.00,,FEW,0.00,WeatherDisplay:10.37,2013-05-05 01:39:00,
2013-05-04 20:44:00,68.0,54.0,29.18,SSE,167,3.5,5.8,61,0.00,,FEW,0.00,WeatherDisplay:10.37,2013-05-05 01:44:00,
2013-05-04 20:49:00,67.9,53.5,29.18,SSE,154,1.8,4.6,60,0.00,,FEW,0.00,WeatherDisplay:10.37,2013-05-05 01:49:00,
2013-05-04 20:54:00,68.0,54.0,29.18,South,170,3.4,5.8,61,0.00,,FEW,0.00,WeatherDisplay:10.37,2013-05-05 01:54:00,
2013-05-04 20:59:00,67.9,54.0,29.18,SE,140,6.4,10.4,61,0.00,,FEW,0.00,WeatherDisplay:10.37,2013-05-05 01:59:00,
2013-05-04 21:04:00,67.8,54.3,29.18,SSE,153,5.8,8.1,62,0.00,,FEW,0.00,WeatherDisplay:10.37,2013-05-05 02:04:00,
2013-05-04 21:09:00,67.9,54.4,29.18,SE,140,6.6,8.1,62,0.00,,FEW,0.00,WeatherDisplay:10.37,2013-05-05 02:09:00,
2013-05-04 21:14:00,67.9,54.8,29.18,SE,135,4.2,8.1,63,0.00,,FEW,0.00,WeatherDisplay:10.37,2013-05-05 02:14:00,
2013-05-04 21:19:00,67.9,54.8,29.18,ESE,107,5.6,9.2,63,0.00,,FEW,0.00,WeatherDisplay:10.37,2013-05-05 02:19:00,
2013-05-04 21:24:00,67.9,54.8,29.19,SE,133,4.0,5.8,63,0.00,,FEW,0.00,WeatherDisplay:10.37,2013-05-05 02:24:00,
2013-05-04 21:29:00,68.0,55.4,29.19,SE,141,4.7,5.8,64,0.00,,FEW,0.00,WeatherDisplay:10.37,2013-05-05 02:29:00,
2013-05-04 21:34:00,67.9,55.3,29.19,ESE,120,3.7,5.8,64,0.00,,FEW,0.00,WeatherDisplay:10.37,2013-05-05 02:34:00,
2013-05-04 21:39:00,67.9,55.3,29.19,SE,130,3.3,6.9,64,0.00,,FEW,0.00,WeatherDisplay:10.37,2013-05-05 02:39:00,
2013-05-04 21:44:00,67.9,55.3,29.19,SSE,160,5.2,9.2,64,0.00,,FEW,0.00,WeatherDisplay:10.37,2013-05-05 02:44:00,
2013-05-04 21:49:00,67.8,55.2,29.20,SSE,160,8.0,8.0,64,0.00,,FEW,0.00,WeatherDisplay:10.37,2013-05-05 02:49:00,
2013-05-04 21:54:00,67.8,55.6,29.20,South,175,5.0,10.4,65,0.00,,FEW,0.00,WeatherDisplay:10.37,2013-05-05 02:54:00,
2013-05-04 21:59:00,67.8,56.0,29.20,SSE,155,5.4,6.9,66,0.00,,FEW,0.00,WeatherDisplay:10.37,2013-05-05 02:59:00,
2013-05-04 22:04:00,67.8,56.0,29.20,SE,131,7.4,10.4,66,0.00,,FEW,0.00,WeatherDisplay:10.37,2013-05-05 03:04:00,
2013-05-04 22:09:00,67.7,55.9,29.20,SSE,156,6.4,11.5,66,0.00,,FEW,0.00,WeatherDisplay:10.37,2013-05-05 03:09:00,
2013-05-04 22:14:00,67.6,56.2,29.20,South,185,1.7,4.6,67,0.00,,FEW,0.00,WeatherDisplay:10.37,2013-05-05 03:14:00,
2013-05-04 22:19:00,67.5,56.2,29.20,ESE,114,1.9,4.6,67,0.00,,FEW,0.00,WeatherDisplay:10.37,2013-05-05 03:19:00,
2013-05-04 22:24:00,67.5,56.6,29.20,SSE,159,4.4,6.9,68,0.00,,FEW,0.00,WeatherDisplay:10.37,2013-05-05 03:24:00,
2013-05-04 22:29:00,67.4,56.5,29.20,SE,126,5.1,7.4,68,0.00,,FEW,0.00,WeatherDisplay:10.37,2013-05-05 03:29:00,
2013-05-04 22:34:00,67.3,56.4,29.20,South,169,5.8,8.1,68,0.00,,FEW,0.00,WeatherDisplay:10.37,2013-05-05 03:34:00,
2013-05-04 22:39:00,67.3,56.8,29.20,South,169,3.4,5.8,69,0.00,,FEW,0.00,WeatherDisplay:10.37,2013-05-05 03:39:00,
2013-05-04 22:44:00,67.2,56.7,29.20,SE,141,4.9,9.2,69,0.00,,FEW,0.00,WeatherDisplay:10.37,2013-05-05 03:44:00,
2013-05-04 22:49:00,67.2,57.1,29.20,South,169,3.7,5.8,70,0.00,,FEW,0.00,WeatherDisplay:10.37,2013-05-05 03:49:00,
2013-05-04 22:54:00,67.1,57.0,29.21,SW,223,5.9,6.9,70,0.00,,FEW,0.00,WeatherDisplay:10.37,2013-05-05 03:54:00,
2013-05-04 22:59:00,67.1,57.0,29.21,SE,142,3.8,5.8,70,0.00,,FEW,0.00,WeatherDisplay:10.37,2013-05-05 03:59:00,
2013-05-04 23:01:00,67.1,57.0,29.21,SSE,166,3.1,7.4,70,0.00,,FEW,0.00,WeatherDisplay:10.37,2013-05-05 04:01:00,
2013-05-04 23:06:00,67.0,57.3,29.21,SSE,160,4.4,5.8,71,0.00,,FEW,0.00,WeatherDisplay:10.37,2013-05-05 04:06:00,
2013-05-04 23:11:00,66.9,57.2,29.21,South,170,2.2,3.5,71,0.00,,FEW,0.00,WeatherDisplay:10.37,2013-05-05 04:11:00,
2013-05-04 23:16:00,66.8,57.1,29.21,SSW,193,1.8,4.6,71,0.00,,FEW,0.00,WeatherDisplay:10.37,2013-05-05 04:16:00,
2013-05-04 23:21:00,66.9,57.2,29.21,South,177,2.2,5.8,71,0.00,,FEW,0.00,WeatherDisplay:10.37,2013-05-05 04:21:00,
2013-05-04 23:26:00,66.7,57.4,29.21,South,179,1.5,2.1,72,0.00,,FEW,0.00,WeatherDisplay:10.37,2013-05-05 04:26:00,
2013-05-04 23:31:00,66.6,57.7,29.21,SE,130,1.2,1.2,73,0.00,,FEW,0.00,WeatherDisplay:10.37,2013-05-05 04:31:00,
2013-05-04 23:36:00,66.5,57.6,29.21,SW,231,2.4,4.6,73,0.00,,FEW,0.00,WeatherDisplay:10.37,2013-05-05 04:36:00,
2013-05-04 23:41:00,66.5,57.6,29.21,SW,230,3.6,5.8,73,0.00,,FEW,0.00,WeatherDisplay:10.37,2013-05-05 04:41:00,
2013-05-04 23:46:00,66.5,57.6,29.21,SW,214,0.8,3.5,73,0.00,,FEW,0.00,WeatherDisplay:10.37,2013-05-05 04:46:00,
2013-05-04 23:51:00,66.6,58.1,29.21,SW,214,2.8,5.8,74,0.00,,FEW,0.00,WeatherDisplay:10.37,2013-05-05 04:51:00,
2013-05-04 23:56:00,66.5,58.0,29.21,SSE,156,3.8,4.2,74,0.00,,FEW,0.00,WeatherDisplay:10.37,2013-05-05 04:56:00,